アトラス彗星

C/2020 R7 ( ATLAS )

English version
Home page
Updated on July 16, 2022

---------------------------------------------------------------------

・ プロフィール

発見日 2020年9月15日
発見光度 19.0等
発見者 Asteroid Terrestrial-Impact Last Alert System (ATLAS) search program

・ 写真集

・ 軌道要素

Epoch 2022 Aug. 9.0 TT = JDT 2459800.5
T 2022 Sept. 16.23589 TT                                Rudenko
q   2.9558950            (2000.0)            P               Q
z  -0.0000349      Peri.  347.83818     +0.05931903     -0.41757567
 +/-0.0000011      Node   268.28176     -0.82290965     -0.53461339
e   1.0001033      Incl.  114.89079     -0.56506721     +0.73472381
From 244 observations 2019 Dec. 3-2022 May 28, mean residual 0".4.

・ 星図

・ 光度変化

        m1 = 6.0 + 5 logΔ + 10.0 log r

---------------------------------------------------------------------

軌道要素はM.P.E.C. 2022-L66に掲載されたものです。
星図はステラナビゲータ Ver.10 (アストロアーツ) で作成したものです。
光度グラフはComet for Windowsで作成したものです。

---------------------------------------------------------------------

Copyright(C) Seiichi Yoshida (comet@aerith.net). All rights reserved.